contact:dominique.lefevre@mio.osupytheas.fr, maurice.libes@osupytheas.fr, didier.mallarino@osupytheas.fr
Project:EMSO http://www.emso-fr.org/EMSO-France
Depth: 2436.0 m
Title:EMSO Ligure Ouest : Data MII capteur MICROCAT
DateTime_Computer,Latitude,Longitude,Temperature,Conductivity,Pressure,DateTime_Instrument
DateTime_Computer,Latitude,Longitude,degC,S m-1,dbar,DateTime_Instrument
2023-02-06T00:00:15Z,42.805,6.029,13.3037,4.60117,2470.507,2023-2-06T02:02:34Z
2023-02-06T00:03:18Z,42.805,6.029,13.3029,4.60098,2470.46,2023-2-06T02:05:37Z
2023-02-06T00:06:21Z,42.805,6.029,13.3031,4.60099,2470.446,2023-2-06T02:08:40Z
2023-02-06T00:09:24Z,42.805,6.029,13.3035,4.60092,2470.52,2023-2-06T02:11:43Z
2023-02-06T00:12:28Z,42.805,6.029,13.3033,4.60105,2470.474,2023-2-06T02:14:46Z
2023-02-06T00:15:31Z,42.805,6.029,13.3038,4.60112,2470.474,2023-2-06T02:17:49Z
2023-02-06T00:18:34Z,42.805,6.029,13.3025,4.60091,2470.507,2023-2-06T02:20:52Z
2023-02-06T00:21:37Z,42.805,6.029,13.3031,4.60091,2470.483,2023-2-06T02:23:55Z
2023-02-06T00:24:40Z,42.805,6.029,13.3034,4.60092,2470.46,2023-2-06T02:26:58Z
2023-02-06T00:27:43Z,42.805,6.029,13.3029,4.60100,2470.474,2023-2-06T02:30:02Z
2023-02-06T00:30:46Z,42.805,6.029,13.3031,4.60093,2470.46,2023-2-06T02:33:05Z
2023-02-06T00:33:49Z,42.805,6.029,13.3034,4.60089,2470.483,2023-2-06T02:36:08Z
2023-02-06T00:36:52Z,42.805,6.029,13.3026,4.60099,2470.483,2023-2-06T02:39:11Z
2023-02-06T00:39:55Z,42.805,6.029,13.3032,4.60101,2470.437,2023-2-06T02:42:14Z
2023-02-06T00:42:58Z,42.805,6.029,13.3036,4.60105,2470.474,2023-2-06T02:45:17Z
2023-02-06T00:46:01Z,42.805,6.029,13.3032,4.60099,2470.483,2023-2-06T02:48:20Z
2023-02-06T00:49:04Z,42.805,6.029,13.3038,4.60097,2470.474,2023-2-06T02:51:23Z
2023-02-06T00:52:07Z,42.805,6.029,13.3029,4.60098,2470.474,2023-2-06T02:54:26Z
2023-02-06T00:55:11Z,42.805,6.029,13.3027,4.60093,2470.46,2023-2-06T02:57:29Z
2023-02-06T00:58:14Z,42.805,6.029,13.3030,4.60097,2470.474,2023-2-06T03:00:32Z
2023-02-06T01:01:17Z,42.805,6.029,13.3035,4.60113,2470.483,2023-2-06T03:03:35Z
2023-02-06T01:04:20Z,42.805,6.029,13.3035,4.60111,2470.474,2023-2-06T03:06:38Z
2023-02-06T01:07:23Z,42.805,6.029,13.3048,4.60122,2470.507,2023-2-06T03:09:41Z
2023-02-06T01:10:26Z,42.805,6.029,13.3039,4.60117,2470.46,2023-2-06T03:12:45Z
2023-02-06T01:13:29Z,42.805,6.029,13.3036,4.60107,2470.437,2023-2-06T03:15:48Z
2023-02-06T01:16:32Z,42.805,6.029,13.3029,4.60105,2470.474,2023-2-06T03:18:51Z
2023-02-06T01:19:35Z,42.805,6.029,13.3033,4.60099,2470.507,2023-2-06T03:21:54Z
2023-02-06T01:22:38Z,42.805,6.029,13.3034,4.60108,2470.483,2023-2-06T03:24:57Z
2023-02-06T01:25:41Z,42.805,6.029,13.3033,4.60105,2470.497,2023-2-06T03:28:00Z
2023-02-06T01:28:44Z,42.805,6.029,13.3042,4.60104,2470.413,2023-2-06T03:31:03Z
2023-02-06T01:31:47Z,42.805,6.029,13.3033,4.60097,2470.437,2023-2-06T03:34:06Z
2023-02-06T01:34:50Z,42.805,6.029,13.3029,4.60113,2470.544,2023-2-06T03:37:09Z
2023-02-06T01:37:54Z,42.805,6.029,13.3034,4.60105,2470.437,2023-2-06T03:40:12Z
2023-02-06T01:40:57Z,42.805,6.029,13.3037,4.60099,2470.46,2023-2-06T03:43:15Z
2023-02-06T01:44:00Z,42.805,6.029,13.3038,4.60109,2470.46,2023-2-06T03:46:18Z
2023-02-06T01:47:03Z,42.805,6.029,13.3031,4.60110,2470.46,2023-2-06T03:49:21Z
2023-02-06T01:50:06Z,42.805,6.029,13.3035,4.60108,2470.483,2023-2-06T03:52:25Z
2023-02-06T01:53:09Z,42.805,6.029,13.3029,4.60095,2470.46,2023-2-06T03:55:28Z
2023-02-06T01:56:12Z,42.805,6.029,13.3032,4.60102,2470.497,2023-2-06T03:58:31Z
2023-02-06T01:59:15Z,42.805,6.029,13.3030,4.60094,2470.497,2023-2-06T04:01:34Z
2023-02-06T02:02:18Z,42.805,6.029,13.3039,4.60117,2470.483,2023-2-06T04:04:37Z
2023-02-06T02:05:21Z,42.805,6.029,13.3042,4.60119,2470.497,2023-2-06T04:07:40Z
2023-02-06T02:08:24Z,42.805,6.029,13.3034,4.60102,2470.497,2023-2-06T04:10:43Z
2023-02-06T02:11:27Z,42.805,6.029,13.3038,4.60126,2470.483,2023-2-06T04:13:46Z
2023-02-06T02:14:30Z,42.805,6.029,13.3039,4.60106,2470.52,2023-2-06T04:16:49Z
2023-02-06T02:17:34Z,42.805,6.029,13.3029,4.60095,2470.474,2023-2-06T04:19:52Z
2023-02-06T02:20:37Z,42.805,6.029,13.3034,4.60099,2470.497,2023-2-06T04:22:55Z
2023-02-06T02:23:40Z,42.805,6.029,13.3029,4.60113,2470.46,2023-2-06T04:25:58Z
2023-02-06T02:26:43Z,42.805,6.029,13.3034,4.60114,2470.483,2023-2-06T04:29:01Z
2023-02-06T02:29:46Z,42.805,6.029,13.3039,4.60106,2470.474,2023-2-06T04:32:05Z
2023-02-06T02:32:49Z,42.805,6.029,13.3036,4.60096,2470.507,2023-2-06T04:35:08Z
2023-02-06T02:35:52Z,42.805,6.029,13.3035,4.60094,2470.507,2023-2-06T04:38:11Z
2023-02-06T02:38:55Z,42.805,6.029,13.3032,4.60090,2470.46,2023-2-06T04:41:14Z
2023-02-06T02:41:58Z,42.805,6.029,13.3036,4.60096,2470.497,2023-2-06T04:44:17Z
2023-02-06T02:45:01Z,42.805,6.029,13.3032,4.60099,2470.497,2023-2-06T04:47:20Z
2023-02-06T02:48:04Z,42.805,6.029,13.3037,4.60104,2470.483,2023-2-06T04:50:23Z
2023-02-06T02:51:07Z,42.805,6.029,13.3034,4.60102,2470.47,2023-2-06T04:53:26Z
2023-02-06T02:54:10Z,42.805,6.029,13.3031,4.60102,2470.507,2023-2-06T04:56:29Z
2023-02-06T02:57:14Z,42.805,6.029,13.3040,4.60116,2470.46,2023-2-06T04:59:32Z
2023-02-06T03:00:17Z,42.805,6.029,13.3029,4.60114,2470.567,2023-2-06T05:02:35Z
2023-02-06T03:03:20Z,42.805,6.029,13.3028,4.60097,2470.507,2023-2-06T05:05:38Z
2023-02-06T03:06:23Z,42.805,6.029,13.3026,4.60106,2470.483,2023-2-06T05:08:41Z
2023-02-06T03:09:26Z,42.805,6.029,13.3027,4.60093,2470.483,2023-2-06T05:11:44Z
2023-02-06T03:12:29Z,42.805,6.029,13.3031,4.60092,2470.544,2023-2-06T05:14:48Z
2023-02-06T03:15:32Z,42.805,6.029,13.3029,4.60104,2470.52,2023-2-06T05:17:51Z
2023-02-06T03:18:35Z,42.805,6.029,13.3034,4.60099,2470.507,2023-2-06T05:20:54Z
2023-02-06T03:21:38Z,42.805,6.029,13.3036,4.60101,2470.507,2023-2-06T05:23:57Z
2023-02-06T03:24:41Z,42.805,6.029,13.3034,4.60101,2470.53,2023-2-06T05:27:00Z
2023-02-06T03:27:44Z,42.805,6.029,13.3036,4.60110,2470.507,2023-2-06T05:30:03Z
2023-02-06T03:30:47Z,42.805,6.029,13.3039,4.60120,2470.507,2023-2-06T05:33:06Z
2023-02-06T03:33:50Z,42.805,6.029,13.3032,4.60108,2470.544,2023-2-06T05:36:09Z
2023-02-06T03:36:53Z,42.805,6.029,13.3029,4.60096,2470.52,2023-2-06T05:39:12Z
2023-02-06T03:39:57Z,42.805,6.029,13.3030,4.60099,2470.483,2023-2-06T05:42:15Z
2023-02-06T03:43:00Z,42.805,6.029,13.3039,4.60104,2470.53,2023-2-06T05:45:18Z
2023-02-06T03:46:03Z,42.805,6.029,13.3036,4.60123,2470.544,2023-2-06T05:48:21Z
2023-02-06T03:49:06Z,42.805,6.029,13.3034,4.60097,2470.544,2023-2-06T05:51:24Z
2023-02-06T03:52:09Z,42.805,6.029,13.3030,4.60123,2470.53,2023-2-06T05:54:28Z
2023-02-06T03:55:12Z,42.805,6.029,13.3048,4.60117,2470.544,2023-2-06T05:57:31Z
2023-02-06T03:58:15Z,42.805,6.029,13.3037,4.60102,2470.507,2023-2-06T06:00:34Z
2023-02-06T04:01:18Z,42.805,6.029,13.3056,4.60131,2470.567,2023-2-06T06:03:37Z
2023-02-06T04:04:21Z,42.805,6.029,13.3057,4.60141,2470.53,2023-2-06T06:06:40Z
2023-02-06T04:07:24Z,42.805,6.029,13.3047,4.60122,2470.544,2023-2-06T06:09:43Z
2023-02-06T04:10:27Z,42.805,6.029,13.3036,4.60100,2470.53,2023-2-06T06:12:46Z
2023-02-06T04:13:30Z,42.805,6.029,13.3031,4.60104,2470.53,2023-2-06T06:15:49Z
2023-02-06T04:16:33Z,42.805,6.029,13.3036,4.60109,2470.591,2023-2-06T06:18:52Z
2023-02-06T04:19:37Z,42.805,6.029,13.3043,4.60114,2470.544,2023-2-06T06:21:55Z
2023-02-06T04:22:40Z,42.805,6.029,13.3041,4.60122,2470.591,2023-2-06T06:24:58Z
2023-02-06T04:25:43Z,42.805,6.029,13.3042,4.60094,2470.577,2023-2-06T06:28:01Z
2023-02-06T04:28:46Z,42.805,6.029,13.3035,4.60125,2470.567,2023-2-06T06:31:04Z
2023-02-06T04:31:49Z,42.805,6.029,13.3039,4.60115,2470.553,2023-2-06T06:34:08Z
2023-02-06T04:34:52Z,42.805,6.029,13.3034,4.60112,2470.577,2023-2-06T06:37:11Z
2023-02-06T04:37:55Z,42.805,6.029,13.3034,4.60119,2470.591,2023-2-06T06:40:14Z
2023-02-06T04:40:58Z,42.805,6.029,13.3041,4.60140,2470.577,2023-2-06T06:43:17Z
2023-02-06T04:44:01Z,42.805,6.029,13.3046,4.60133,2470.567,2023-2-06T06:46:20Z
2023-02-06T04:47:04Z,42.805,6.029,13.3034,4.60155,2470.567,2023-2-06T06:49:23Z
2023-02-06T04:50:07Z,42.805,6.029,13.3054,4.60132,2470.553,2023-2-06T06:52:26Z
2023-02-06T04:53:10Z,42.805,6.029,13.3042,4.60135,2470.591,2023-2-06T06:55:29Z
2023-02-06T04:56:13Z,42.805,6.029,13.3041,4.60112,2470.577,2023-2-06T06:58:32Z
2023-02-06T04:59:16Z,42.805,6.029,13.3034,4.60115,2470.624,2023-2-06T07:01:35Z
2023-02-06T05:02:20Z,42.805,6.029,13.3037,4.60149,2470.577,2023-2-06T07:04:38Z
2023-02-06T05:05:23Z,42.805,6.029,13.3028,4.60135,2470.6,2023-2-06T07:07:41Z
2023-02-06T05:08:26Z,42.805,6.029,13.3030,4.60099,2470.6,2023-2-06T07:10:44Z
2023-02-06T05:11:29Z,42.805,6.029,13.3034,4.60123,2470.614,2023-2-06T07:13:47Z
2023-02-06T05:14:32Z,42.805,6.029,13.3037,4.60125,2470.591,2023-2-06T07:16:51Z
2023-02-06T05:17:35Z,42.805,6.029,13.3059,4.60121,2470.624,2023-2-06T07:19:54Z
2023-02-06T05:20:38Z,42.805,6.029,13.3044,4.60109,2470.624,2023-2-06T07:22:57Z
2023-02-06T05:23:41Z,42.805,6.029,13.3044,4.60144,2470.646,2023-2-06T07:26:00Z
2023-02-06T05:26:44Z,42.805,6.029,13.3058,4.60146,2470.637,2023-2-06T07:29:03Z
2023-02-06T05:29:47Z,42.805,6.029,13.3060,4.60144,2470.637,2023-2-06T07:32:06Z
2023-02-06T05:32:50Z,42.805,6.029,13.3056,4.60134,2470.6,2023-2-06T07:35:09Z
2023-02-06T05:35:53Z,42.805,6.029,13.3056,4.60118,2470.661,2023-2-06T07:38:12Z
2023-02-06T05:38:56Z,42.805,6.029,13.3067,4.60108,2470.637,2023-2-06T07:41:15Z
2023-02-06T05:42:00Z,42.805,6.029,13.3039,4.60128,2470.614,2023-2-06T07:44:18Z
2023-02-06T05:45:03Z,42.805,6.029,13.3070,4.60133,2470.661,2023-2-06T07:47:21Z
2023-02-06T05:48:06Z,42.805,6.029,13.3039,4.60122,2470.684,2023-2-06T07:50:24Z
2023-02-06T05:51:09Z,42.805,6.029,13.3041,4.60155,2470.651,2023-2-06T07:53:28Z
2023-02-06T05:54:12Z,42.805,6.029,13.3051,4.60131,2470.661,2023-2-06T07:56:31Z
2023-02-06T05:57:15Z,42.805,6.029,13.3046,4.60132,2470.684,2023-2-06T07:59:34Z
2023-02-06T06:00:18Z,42.805,6.029,13.3034,4.60150,2470.67,2023-2-06T08:02:37Z
2023-02-06T06:03:21Z,42.805,6.029,13.3039,4.60164,2470.646,2023-2-06T08:05:40Z
2023-02-06T06:06:24Z,42.805,6.029,13.3070,4.60143,2470.67,2023-2-06T08:08:43Z
2023-02-06T06:09:27Z,42.805,6.029,13.3039,4.60157,2470.67,2023-2-06T08:11:46Z
2023-02-06T06:12:30Z,42.805,6.029,13.3043,4.60151,2470.656,2023-2-06T08:14:49Z
2023-02-06T06:15:33Z,42.805,6.029,13.3043,4.60161,2470.624,2023-2-06T08:17:52Z
2023-02-06T06:18:36Z,42.805,6.029,13.3037,4.60162,2470.693,2023-2-06T08:20:55Z
2023-02-06T06:21:40Z,42.805,6.029,13.3033,4.60151,2470.707,2023-2-06T08:23:58Z
2023-02-06T06:24:43Z,42.805,6.029,13.3032,4.60155,2470.693,2023-2-06T08:27:01Z
2023-02-06T06:27:46Z,42.805,6.029,13.3041,4.60126,2470.67,2023-2-06T08:30:04Z
2023-02-06T06:30:49Z,42.805,6.029,13.3049,4.60156,2470.656,2023-2-06T08:33:08Z
2023-02-06T06:33:52Z,42.805,6.029,13.3057,4.60178,2470.693,2023-2-06T08:36:11Z
2023-02-06T06:36:55Z,42.805,6.029,13.3054,4.60173,2470.717,2023-2-06T08:39:14Z
2023-02-06T06:39:58Z,42.805,6.029,13.3063,4.60160,2470.73,2023-2-06T08:42:17Z
2023-02-06T06:43:01Z,42.805,6.029,13.3047,4.60185,2470.684,2023-2-06T08:45:20Z
2023-02-06T06:46:04Z,42.805,6.029,13.3060,4.60135,2470.717,2023-2-06T08:48:23Z
2023-02-06T06:49:07Z,42.805,6.029,13.3052,4.60162,2470.717,2023-2-06T08:51:26Z
2023-02-06T06:52:10Z,42.805,6.029,13.3039,4.60131,2470.717,2023-2-06T08:54:29Z
2023-02-06T06:55:13Z,42.805,6.029,13.3051,4.60147,2470.717,2023-2-06T08:57:32Z
2023-02-06T06:58:16Z,42.805,6.029,13.3053,4.60164,2470.707,2023-2-06T09:00:35Z
2023-02-06T07:01:20Z,42.805,6.029,13.3048,4.60116,2470.74,2023-2-06T09:03:38Z
2023-02-06T07:04:23Z,42.805,6.029,13.3066,4.60143,2470.717,2023-2-06T09:06:41Z
2023-02-06T07:07:26Z,42.805,6.029,13.3046,4.60115,2470.73,2023-2-06T09:09:44Z
2023-02-06T07:10:29Z,42.805,6.029,13.3042,4.60132,2470.73,2023-2-06T09:12:48Z
2023-02-06T07:13:32Z,42.805,6.029,13.3048,4.60138,2470.74,2023-2-06T09:15:51Z
2023-02-06T07:16:35Z,42.805,6.029,13.3069,4.60117,2470.73,2023-2-06T09:18:54Z
2023-02-06T07:19:38Z,42.805,6.029,13.3036,4.60142,2470.717,2023-2-06T09:21:57Z
2023-02-06T07:22:41Z,42.805,6.029,13.3051,4.60131,2470.73,2023-2-06T09:25:00Z
2023-02-06T07:25:44Z,42.805,6.029,13.3063,4.60138,2470.754,2023-2-06T09:28:03Z
2023-02-06T07:28:47Z,42.805,6.029,13.3041,4.60119,2470.717,2023-2-06T09:31:06Z
2023-02-06T07:31:50Z,42.805,6.029,13.3045,4.60134,2470.73,2023-2-06T09:34:09Z
2023-02-06T07:34:53Z,42.805,6.029,13.3041,4.60155,2470.754,2023-2-06T09:37:12Z
2023-02-06T07:37:56Z,42.805,6.029,13.3051,4.60142,2470.717,2023-2-06T09:40:15Z
2023-02-06T07:40:59Z,42.805,6.029,13.3045,4.60151,2470.717,2023-2-06T09:43:18Z
2023-02-06T07:44:03Z,42.805,6.029,13.3036,4.60167,2470.74,2023-2-06T09:46:21Z
2023-02-06T07:47:06Z,42.805,6.029,13.3036,4.60155,2470.754,2023-2-06T09:49:24Z
2023-02-06T07:50:09Z,42.805,6.029,13.3044,4.60123,2470.777,2023-2-06T09:52:28Z
2023-02-06T07:53:12Z,42.805,6.029,13.3038,4.60173,2470.73,2023-2-06T09:55:31Z
2023-02-06T07:56:15Z,42.805,6.029,13.3046,4.60157,2470.754,2023-2-06T09:58:34Z
2023-02-06T07:59:18Z,42.805,6.029,13.3039,4.60127,2470.754,2023-2-06T10:01:37Z
2023-02-06T08:02:21Z,42.805,6.029,13.3037,4.60155,2470.74,2023-2-06T10:04:40Z
2023-02-06T08:05:24Z,42.805,6.029,13.3054,4.60120,2470.693,2023-2-06T10:07:43Z
2023-02-06T08:08:27Z,42.805,6.029,13.3061,4.60128,2470.73,2023-2-06T10:10:46Z
2023-02-06T08:11:30Z,42.805,6.029,13.3048,4.60123,2470.717,2023-2-06T10:13:49Z
2023-02-06T08:14:33Z,42.805,6.029,13.3039,4.60154,2470.787,2023-2-06T10:16:52Z
2023-02-06T08:17:36Z,42.805,6.029,13.3046,4.60130,2470.754,2023-2-06T10:19:55Z
2023-02-06T08:20:39Z,42.805,6.029,13.3049,4.60196,2470.717,2023-2-06T10:22:58Z
2023-02-06T08:23:43Z,42.805,6.029,13.3047,4.60167,2470.777,2023-2-06T10:26:01Z
2023-02-06T08:26:46Z,42.805,6.029,13.3052,4.60133,2470.763,2023-2-06T10:29:04Z
2023-02-06T08:29:49Z,42.805,6.029,13.3051,4.60117,2470.763,2023-2-06T10:32:08Z
2023-02-06T08:32:52Z,42.805,6.029,13.3053,4.60140,2470.754,2023-2-06T10:35:11Z
2023-02-06T08:35:55Z,42.805,6.029,13.3056,4.60144,2470.74,2023-2-06T10:38:14Z
2023-02-06T08:38:58Z,42.805,6.029,13.3041,4.60147,2470.754,2023-2-06T10:41:17Z
2023-02-06T08:42:01Z,42.805,6.029,13.3055,4.60164,2470.693,2023-2-06T10:44:20Z
2023-02-06T08:45:04Z,42.805,6.029,13.3054,4.60168,2470.754,2023-2-06T10:47:23Z
2023-02-06T08:48:07Z,42.805,6.029,13.3073,4.60140,2470.74,2023-2-06T10:50:26Z
2023-02-06T08:51:10Z,42.805,6.029,13.3057,4.60134,2470.717,2023-2-06T10:53:29Z
2023-02-06T08:54:13Z,42.805,6.029,13.3043,4.60157,2470.73,2023-2-06T10:56:32Z
2023-02-06T08:57:16Z,42.805,6.029,13.3056,4.60172,2470.754,2023-2-06T10:59:35Z
2023-02-06T09:00:20Z,42.805,6.029,13.3055,4.60157,2470.74,2023-2-06T11:02:38Z
2023-02-06T09:03:23Z,42.805,6.029,13.3050,4.60139,2470.74,2023-2-06T11:05:41Z
2023-02-06T09:06:26Z,42.805,6.029,13.3043,4.60115,2470.74,2023-2-06T11:08:45Z
2023-02-06T09:09:29Z,42.805,6.029,13.3038,4.60135,2470.717,2023-2-06T11:11:48Z
2023-02-06T09:12:32Z,42.805,6.029,13.3058,4.60146,2470.74,2023-2-06T11:14:51Z
2023-02-06T09:15:35Z,42.805,6.029,13.3053,4.60152,2470.73,2023-2-06T11:17:54Z
2023-02-06T09:18:38Z,42.805,6.029,13.3046,4.60139,2470.763,2023-2-06T11:20:57Z
2023-02-06T09:21:41Z,42.805,6.029,13.3056,4.60176,2470.74,2023-2-06T11:24:00Z
2023-02-06T09:24:44Z,42.805,6.029,13.3043,4.60154,2470.754,2023-2-06T11:27:03Z
2023-02-06T09:27:47Z,42.805,6.029,13.3042,4.60157,2470.717,2023-2-06T11:30:06Z
2023-02-06T09:30:50Z,42.805,6.029,13.3039,4.60155,2470.777,2023-2-06T11:33:09Z
2023-02-06T09:33:53Z,42.805,6.029,13.3047,4.60138,2470.754,2023-2-06T11:36:12Z
2023-02-06T09:36:56Z,42.805,6.029,13.3047,4.60147,2470.717,2023-2-06T11:39:15Z
2023-02-06T09:40:00Z,42.805,6.029,13.3057,4.60152,2470.74,2023-2-06T11:42:18Z
2023-02-06T09:43:03Z,42.805,6.029,13.3055,4.60157,2470.754,2023-2-06T11:45:21Z
2023-02-06T09:46:06Z,42.805,6.029,13.3059,4.60137,2470.74,2023-2-06T11:48:25Z
2023-02-06T09:49:09Z,42.805,6.029,13.3043,4.60149,2470.717,2023-2-06T11:51:28Z
2023-02-06T09:52:12Z,42.805,6.029,13.3044,4.60165,2470.763,2023-2-06T11:54:31Z
2023-02-06T09:55:15Z,42.805,6.029,13.3040,4.60169,2470.693,2023-2-06T11:57:34Z
2023-02-06T09:58:18Z,42.805,6.029,13.3044,4.60165,2470.73,2023-2-06T12:00:37Z
2023-02-06T10:01:21Z,42.805,6.029,13.3053,4.60162,2470.73,2023-2-06T12:03:40Z
2023-02-06T10:04:24Z,42.805,6.029,13.3046,4.60158,2470.717,2023-2-06T12:06:43Z
2023-02-06T10:07:27Z,42.805,6.029,13.3041,4.60157,2470.717,2023-2-06T12:09:46Z
2023-02-06T10:10:30Z,42.805,6.029,13.3039,4.60151,2470.754,2023-2-06T12:12:49Z
2023-02-06T10:13:33Z,42.805,6.029,13.3043,4.60143,2470.717,2023-2-06T12:15:52Z
2023-02-06T10:16:37Z,42.805,6.029,13.3034,4.60123,2470.717,2023-2-06T12:18:55Z
2023-02-06T10:19:40Z,42.805,6.029,13.3034,4.60162,2470.707,2023-2-06T12:21:58Z
2023-02-06T10:22:43Z,42.805,6.029,13.3045,4.60131,2470.754,2023-2-06T12:25:02Z
2023-02-06T10:25:46Z,42.805,6.029,13.3034,4.60138,2470.684,2023-2-06T12:28:05Z
2023-02-06T10:28:49Z,42.805,6.029,13.3044,4.60132,2470.717,2023-2-06T12:31:08Z
2023-02-06T10:31:52Z,42.805,6.029,13.3041,4.60150,2470.67,2023-2-06T12:34:11Z
2023-02-06T10:34:55Z,42.805,6.029,13.3041,4.60144,2470.717,2023-2-06T12:37:14Z
2023-02-06T10:37:58Z,42.805,6.029,13.3046,4.60150,2470.661,2023-2-06T12:40:17Z
2023-02-06T10:41:01Z,42.805,6.029,13.3034,4.60137,2470.693,2023-2-06T12:43:20Z
2023-02-06T10:44:04Z,42.805,6.029,13.3047,4.60142,2470.707,2023-2-06T12:46:23Z
2023-02-06T10:47:07Z,42.805,6.029,13.3043,4.60152,2470.73,2023-2-06T12:49:26Z
2023-02-06T10:50:10Z,42.805,6.029,13.3048,4.60153,2470.754,2023-2-06T12:52:29Z
2023-02-06T10:53:13Z,42.805,6.029,13.3041,4.60157,2470.67,2023-2-06T12:55:32Z
2023-02-06T10:56:17Z,42.805,6.029,13.3029,4.60110,2470.693,2023-2-06T12:58:35Z
2023-02-06T10:59:20Z,42.805,6.029,13.3039,4.60137,2470.67,2023-2-06T13:01:39Z
2023-02-06T11:02:23Z,42.805,6.029,13.3043,4.60152,2470.684,2023-2-06T13:04:42Z
2023-02-06T11:05:26Z,42.805,6.029,13.3048,4.60122,2470.684,2023-2-06T13:07:45Z
2023-02-06T11:08:29Z,42.805,6.029,13.3047,4.60126,2470.67,2023-2-06T13:10:48Z
2023-02-06T11:11:32Z,42.805,6.029,13.3041,4.60135,2470.646,2023-2-06T13:13:51Z
2023-02-06T11:14:35Z,42.805,6.029,13.3048,4.60130,2470.717,2023-2-06T13:16:54Z
2023-02-06T11:17:38Z,42.805,6.029,13.3043,4.60155,2470.661,2023-2-06T13:19:57Z
2023-02-06T11:20:41Z,42.805,6.029,13.3034,4.60119,2470.684,2023-2-06T13:23:00Z
2023-02-06T11:23:44Z,42.805,6.029,13.3041,4.60136,2470.661,2023-2-06T13:26:03Z
2023-02-06T11:26:47Z,42.805,6.029,13.3033,4.60111,2470.679,2023-2-06T13:29:06Z
2023-02-06T11:29:50Z,42.805,6.029,13.3035,4.60116,2470.67,2023-2-06T13:32:09Z
2023-02-06T11:32:54Z,42.805,6.029,13.3040,4.60123,2470.624,2023-2-06T13:35:12Z
2023-02-06T11:35:57Z,42.805,6.029,13.3039,4.60114,2470.646,2023-2-06T13:38:15Z
2023-02-06T11:39:00Z,42.805,6.029,13.3035,4.60122,2470.661,2023-2-06T13:41:19Z
2023-02-06T11:42:03Z,42.805,6.029,13.3034,4.60117,2470.684,2023-2-06T13:44:22Z
2023-02-06T11:45:06Z,42.805,6.029,13.3036,4.60117,2470.661,2023-2-06T13:47:25Z
2023-02-06T11:48:09Z,42.805,6.029,13.3031,4.60117,2470.661,2023-2-06T13:50:28Z
2023-02-06T11:51:12Z,42.805,6.029,13.3040,4.60110,2470.637,2023-2-06T13:53:31Z
2023-02-06T11:54:15Z,42.805,6.029,13.3037,4.60130,2470.637,2023-2-06T13:56:34Z
2023-02-06T11:57:18Z,42.805,6.029,13.3041,4.60112,2470.646,2023-2-06T13:59:37Z
2023-02-06T12:00:21Z,42.805,6.029,13.3045,4.60121,2470.637,2023-2-06T14:02:40Z
2023-02-06T12:03:24Z,42.805,6.029,13.3038,4.60117,2470.637,2023-2-06T14:05:43Z
2023-02-06T12:06:27Z,42.805,6.029,13.3034,4.60130,2470.646,2023-2-06T14:08:46Z
2023-02-06T12:09:30Z,42.805,6.029,13.3033,4.60105,2470.6,2023-2-06T14:11:49Z
2023-02-06T12:12:33Z,42.805,6.029,13.3034,4.60117,2470.646,2023-2-06T14:14:52Z
2023-02-06T12:15:37Z,42.805,6.029,13.3031,4.60118,2470.661,2023-2-06T14:17:55Z
2023-02-06T12:18:40Z,42.805,6.029,13.3031,4.60117,2470.624,2023-2-06T14:20:59Z
2023-02-06T12:21:43Z,42.805,6.029,13.3037,4.60112,2470.637,2023-2-06T14:24:02Z
2023-02-06T12:24:46Z,42.805,6.029,13.3038,4.60119,2470.624,2023-2-06T14:27:05Z
2023-02-06T12:27:49Z,42.805,6.029,13.3039,4.60115,2470.6,2023-2-06T14:30:08Z
2023-02-06T12:30:52Z,42.805,6.029,13.3030,4.60108,2470.624,2023-2-06T14:33:11Z
2023-02-06T12:33:55Z,42.805,6.029,13.3033,4.60133,2470.614,2023-2-06T14:36:14Z
2023-02-06T12:36:58Z,42.805,6.029,13.3040,4.60127,2470.614,2023-2-06T14:39:17Z
2023-02-06T12:40:01Z,42.805,6.029,13.3031,4.60107,2470.614,2023-2-06T14:42:20Z
2023-02-06T12:43:04Z,42.805,6.029,13.3031,4.60104,2470.637,2023-2-06T14:45:23Z
2023-02-06T12:46:07Z,42.805,6.029,13.3035,4.60117,2470.637,2023-2-06T14:48:26Z
2023-02-06T12:49:10Z,42.805,6.029,13.3030,4.60102,2470.614,2023-2-06T14:51:29Z
2023-02-06T12:52:14Z,42.805,6.029,13.3029,4.60104,2470.614,2023-2-06T14:54:32Z
2023-02-06T12:55:17Z,42.805,6.029,13.3040,4.60100,2470.624,2023-2-06T14:57:36Z
2023-02-06T12:58:20Z,42.805,6.029,13.3034,4.60141,2470.6,2023-2-06T15:00:39Z
2023-02-06T13:01:23Z,42.805,6.029,13.3039,4.60110,2470.6,2023-2-06T15:03:42Z
2023-02-06T13:04:26Z,42.805,6.029,13.3037,4.60123,2470.567,2023-2-06T15:06:45Z
2023-02-06T13:07:29Z,42.805,6.029,13.3046,4.60122,2470.6,2023-2-06T15:09:48Z
2023-02-06T13:10:32Z,42.805,6.029,13.3035,4.60119,2470.577,2023-2-06T15:12:51Z
2023-02-06T13:13:35Z,42.805,6.029,13.3031,4.60106,2470.6,2023-2-06T15:15:54Z
2023-02-06T13:16:38Z,42.805,6.029,13.3037,4.60126,2470.567,2023-2-06T15:18:57Z
2023-02-06T13:19:41Z,42.805,6.029,13.3040,4.60144,2470.6,2023-2-06T15:22:00Z
2023-02-06T13:22:44Z,42.805,6.029,13.3054,4.60137,2470.577,2023-2-06T15:25:03Z
2023-02-06T13:25:47Z,42.805,6.029,13.3034,4.60107,2470.591,2023-2-06T15:28:06Z
2023-02-06T13:28:50Z,42.805,6.029,13.3039,4.60093,2470.567,2023-2-06T15:31:09Z
2023-02-06T13:31:54Z,42.805,6.029,13.3046,4.60135,2470.577,2023-2-06T15:34:12Z
2023-02-06T13:34:57Z,42.805,6.029,13.3052,4.60125,2470.553,2023-2-06T15:37:16Z
2023-02-06T13:38:00Z,42.805,6.029,13.3036,4.60137,2470.591,2023-2-06T15:40:19Z
2023-02-06T13:41:03Z,42.805,6.029,13.3062,4.60131,2470.577,2023-2-06T15:43:22Z
2023-02-06T13:44:06Z,42.805,6.029,13.3059,4.60148,2470.553,2023-2-06T15:46:25Z
2023-02-06T13:47:09Z,42.805,6.029,13.3057,4.60130,2470.591,2023-2-06T15:49:28Z
2023-02-06T13:50:12Z,42.805,6.029,13.3054,4.60154,2470.553,2023-2-06T15:52:31Z
2023-02-06T13:53:15Z,42.805,6.029,13.3046,4.60140,2470.614,2023-2-06T15:55:34Z
2023-02-06T13:56:18Z,42.805,6.029,13.3046,4.60150,2470.553,2023-2-06T15:58:37Z
2023-02-06T13:59:21Z,42.805,6.029,13.3054,4.60143,2470.591,2023-2-06T16:01:40Z
2023-02-06T14:02:24Z,42.805,6.029,13.3047,4.60127,2470.6,2023-2-06T16:04:43Z
2023-02-06T14:05:27Z,42.805,6.029,13.3041,4.60121,2470.553,2023-2-06T16:07:46Z
2023-02-06T14:08:31Z,42.805,6.029,13.3046,4.60122,2470.553,2023-2-06T16:10:49Z
2023-02-06T14:11:34Z,42.805,6.029,13.3048,4.60127,2470.544,2023-2-06T16:13:53Z
2023-02-06T14:14:37Z,42.805,6.029,13.3069,4.60129,2470.6,2023-2-06T16:16:56Z
2023-02-06T14:17:40Z,42.805,6.029,13.3058,4.60152,2470.591,2023-2-06T16:19:59Z
2023-02-06T14:20:43Z,42.805,6.029,13.3058,4.60142,2470.577,2023-2-06T16:23:02Z
2023-02-06T14:23:46Z,42.805,6.029,13.3062,4.60119,2470.553,2023-2-06T16:26:05Z
2023-02-06T14:26:49Z,42.805,6.029,13.3056,4.60116,2470.567,2023-2-06T16:29:08Z
2023-02-06T14:29:52Z,42.805,6.029,13.3061,4.60147,2470.577,2023-2-06T16:32:11Z
2023-02-06T14:32:55Z,42.805,6.029,13.3059,4.60142,2470.577,2023-2-06T16:35:14Z
2023-02-06T14:35:58Z,42.805,6.029,13.3063,4.60139,2470.577,2023-2-06T16:38:17Z
2023-02-06T14:39:01Z,42.805,6.029,13.3056,4.60132,2470.553,2023-2-06T16:41:20Z
2023-02-06T14:42:04Z,42.805,6.029,13.3059,4.60157,2470.577,2023-2-06T16:44:23Z
2023-02-06T14:45:08Z,42.805,6.029,13.3051,4.60149,2470.591,2023-2-06T16:47:26Z
2023-02-06T14:48:11Z,42.805,6.029,13.3054,4.60146,2470.553,2023-2-06T16:50:30Z
2023-02-06T14:51:14Z,42.805,6.029,13.3058,4.60129,2470.591,2023-2-06T16:53:33Z
2023-02-06T14:54:17Z,42.805,6.029,13.3068,4.60160,2470.553,2023-2-06T16:56:36Z
2023-02-06T14:57:20Z,42.805,6.029,13.3058,4.60162,2470.553,2023-2-06T16:59:39Z
2023-02-06T15:00:23Z,42.805,6.029,13.3049,4.60145,2470.591,2023-2-06T17:02:42Z
2023-02-06T15:03:26Z,42.805,6.029,13.3048,4.60151,2470.553,2023-2-06T17:05:45Z
2023-02-06T15:06:29Z,42.805,6.029,13.3054,4.60151,2470.577,2023-2-06T17:08:48Z
2023-02-06T15:09:32Z,42.805,6.029,13.3053,4.60160,2470.577,2023-2-06T17:11:51Z